星链-5471 (STARLINK-5471 )

导读

STARLINK-5471是美国SpaceX公司星链(Starlink)卫星星座的一员,于2022年12月17日发射升空。星链项目计划在近地轨道部署数万颗卫星,旨在为全球提供低延迟、高速宽带互联网服务,尤其覆盖偏远网络盲区。STARLINK-5471入轨后,与其他星链卫星协同,持续扩展全球卫星互联网的覆盖范围与服务能力,是SpaceX推进巨型星座组网的重要组成部分。

Basic Information
目录编号:
54766
目录名称:
STARLINK-5471
国际标识:
2022-175J
轨道中心:
EARTH
卫星名称:
星链-5471
卫星全名:
星链-5471 (STARLINK-5471 )
卫星状态:
在轨 (已飞行1365 天)
发射日期:
2022-12-17 UTC
国别 :
美国 (US)
星等 :
--
This satellite is enrolled in the Space Conjunction Data Service (SCDS) and the current flight risk assessment level is: No High Risk
Orbit Information
数据来源 国际轨道数据
星历时间: 2026-09-12T10:51:48+0800
9小时前
查看轨道信息
半长轴: 6917.914km
偏心率: 0.0001085
轨道倾角: 53.161°
近地点辐角 82.472°
升交点赤经 286.587°
平近点角 277.640°
近地点: 539.026km
远地点: 540.528km
周期: 95.438分钟
每日圈数: 15.088293
Detailed Information
固有亮度:
5
最大亮度:
2.5
卫星平台:
Starlink v1.5
覆盖范围:
全球
运营商:
太空探索技术公司
运营商所在国:
美国
制造商(研发单位):
太空探索技术公司
制造商所在国:
美国
使用方式:
暂无
Satellite Introduction
星链(Starlink)计划是由太空探索技术公司(SpaceX)提出的一个巨型低轨卫星互联网星座项目,计划在2019年至2024年间在太空搭建由约1.2万颗卫星组成的“星链”网络,其中1584颗将部署在地球上空550千米处的近地轨道,并从2020年开始工作。该卫星仍在工作。
2D Orbit Map
3D Orbit Map
Orbit Altitude Analysis Chart
Orbit Inclination Analysis Chart
Orbit Comprehensive Analysis Chart
View Comprehensive Chart
Conjunction Data List
Event ID Objects TCA Miss Dist (km) Collision Risk Probability Collision Risk Index (CRI) Action
CDM_260912-113605-476606-545421
2026-09-12T
11:36:38+0000
1.521 km
极远距离
6.372932E-6 低风险 0.51
CDM_260912-104805-476606-545421
2026-09-12T
10:48:53+0000
2.536 km
极远距离
1.704199E-6 低风险 0.4
Miss Distance Evolution Trend with All Objects
Collision Probability Evolution Trend with All Objects